owner,sensor,date,latitude,longitude,vertical_datum,mass_concentration_of_oxygen_in_sea_water,qcFlag 
DISL,ioos:station:DISL:BSCA:1,2016-11-01T00:00:00Z,30.3288,-87.8293,2.277,6.39,1111122 
DISL,ioos:station:DISL:BSCA:1,2016-11-01T00:30:00Z,30.3288,-87.8293,2.305,6.21,1111122 
DISL,ioos:station:DISL:BSCA:1,2016-11-01T01:00:00Z,30.3288,-87.8293,2.327,5.76,1111122 
DISL,ioos:station:DISL:BSCA:1,2016-11-01T01:30:00Z,30.3288,-87.8293,2.354,6.87,1111122 
DISL,ioos:station:DISL:BSCA:1,2016-11-01T02:00:00Z,30.3288,-87.8293,2.375,5.74,1111122 
DISL,ioos:station:DISL:BSCA:1,2016-11-01T02:30:00Z,30.3288,-87.8293,2.406,6.95,1111122 
DISL,ioos:station:DISL:BSCA:1,2016-11-01T03:00:00Z,30.3288,-87.8293,2.411,6.96,1111122 
DISL,ioos:station:DISL:BSCA:1,2016-11-01T03:30:00Z,30.3288,-87.8293,2.43,7.06,1111122 
DISL,ioos:station:DISL:BSCA:1,2016-11-01T04:00:00Z,30.3288,-87.8293,2.43,6.67,1111122 
DISL,ioos:station:DISL:BSCA:1,2016-11-01T04:30:00Z,30.3288,-87.8293,2.42,6.91,1111122 
DISL,ioos:station:DISL:BSCA:1,2016-11-01T05:00:00Z,30.3288,-87.8293,2.412,7.12,1111122 
DISL,ioos:station:DISL:BSCA:1,2016-11-01T05:30:00Z,30.3288,-87.8293,2.403,7.18,1111122 
DISL,ioos:station:DISL:BSCA:1,2016-11-01T06:00:00Z,30.3288,-87.8293,2.391,7.12,1111122 
DISL,ioos:station:DISL:BSCA:1,2016-11-01T06:30:00Z,30.3288,-87.8293,2.34,7.21,1111122 
DISL,ioos:station:DISL:BSCA:1,2016-11-01T07:00:00Z,30.3288,-87.8293,2.343,7.14,1111122 
DISL,ioos:station:DISL:BSCA:1,2016-11-01T07:30:00Z,30.3288,-87.8293,2.288,7.08,1111122 
DISL,ioos:station:DISL:BSCA:1,2016-11-01T08:00:00Z,30.3288,-87.8293,2.264,7.13,1111122 
DISL,ioos:station:DISL:BSCA:1,2016-11-01T08:30:00Z,30.3288,-87.8293,2.237,7.08,1111122 
DISL,ioos:station:DISL:BSCA:1,2016-11-01T09:00:00Z,30.3288,-87.8293,2.195,7.06,1111122 
DISL,ioos:station:DISL:BSCA:1,2016-11-01T09:30:00Z,30.3288,-87.8293,2.147,6.96,1111122 
DISL,ioos:station:DISL:BSCA:1,2016-11-01T10:00:00Z,30.3288,-87.8293,2.115,6.83,1111122 
DISL,ioos:station:DISL:BSCA:1,2016-11-01T10:30:00Z,30.3288,-87.8293,2.087,6.88,1111122 
DISL,ioos:station:DISL:BSCA:1,2016-11-01T11:00:00Z,30.3288,-87.8293,2.049,6.88,1111122 
DISL,ioos:station:DISL:BSCA:1,2016-11-01T11:30:00Z,30.3288,-87.8293,2.019,6.94,1111122 
DISL,ioos:station:DISL:BSCA:1,2016-11-01T12:00:00Z,30.3288,-87.8293,1.988,6.77,1111122 
DISL,ioos:station:DISL:BSCA:1,2016-11-01T12:30:00Z,30.3288,-87.8293,1.97,6.81,1111122 
DISL,ioos:station:DISL:BSCA:1,2016-11-01T13:00:00Z,30.3288,-87.8293,1.952,6.74,1111122 
DISL,ioos:station:DISL:BSCA:1,2016-11-01T13:30:00Z,30.3288,-87.8293,1.937,6.85,1111122 
DISL,ioos:station:DISL:BSCA:1,2016-11-01T14:00:00Z,30.3288,-87.8293,1.92,6.69,1111122 
DISL,ioos:station:DISL:BSCA:1,2016-11-01T14:30:00Z,30.3288,-87.8293,1.901,6.77,1111122 
DISL,ioos:station:DISL:BSCA:1,2016-11-01T15:00:00Z,30.3288,-87.8293,1.909,6.79,1111122 
DISL,ioos:station:DISL:BSCA:1,2016-11-01T15:30:00Z,30.3288,-87.8293,1.907,6.73,1111122 
DISL,ioos:station:DISL:BSCA:1,2016-11-01T16:00:00Z,30.3288,-87.8293,1.919,6.66,1111122 
DISL,ioos:station:DISL:BSCA:1,2016-11-01T16:30:00Z,30.3288,-87.8293,1.931,6.76,1111122 
DISL,ioos:station:DISL:BSCA:1,2016-11-01T17:00:00Z,30.3288,-87.8293,1.948,6.63,1111122 
DISL,ioos:station:DISL:BSCA:1,2016-11-01T17:30:00Z,30.3288,-87.8293,1.969,6.85,1111122 
DISL,ioos:station:DISL:BSCA:1,2016-11-01T18:00:00Z,30.3288,-87.8293,1.984,6.68,1111122 
DISL,ioos:station:DISL:BSCA:1,2016-11-01T18:30:00Z,30.3288,-87.8293,2.005,6.88,1111122 
DISL,ioos:station:DISL:BSCA:1,2016-11-01T19:00:00Z,30.3288,-87.8293,2.026,7.04,1111122 
DISL,ioos:station:DISL:BSCA:1,2016-11-01T19:30:00Z,30.3288,-87.8293,2.04,6.74,1111122 
DISL,ioos:station:DISL:BSCA:1,2016-11-01T20:00:00Z,30.3288,-87.8293,2.05,6.94,1111122 
DISL,ioos:station:DISL:BSCA:1,2016-11-01T20:30:00Z,30.3288,-87.8293,2.063,7.24,1111122 
DISL,ioos:station:DISL:BSCA:1,2016-11-01T21:00:00Z,30.3288,-87.8293,2.082,6.96,1111122 
DISL,ioos:station:DISL:BSCA:1,2016-11-01T21:30:00Z,30.3288,-87.8293,2.109,6.49,1111122 
DISL,ioos:station:DISL:BSCA:1,2016-11-01T22:00:00Z,30.3288,-87.8293,2.139,6.64,1111122 
DISL,ioos:station:DISL:BSCA:1,2016-11-01T22:30:00Z,30.3288,-87.8293,2.162,6.62,1111122 
DISL,ioos:station:DISL:BSCA:1,2016-11-01T23:00:00Z,30.3288,-87.8293,2.197,6.54,1111122 
DISL,ioos:station:DISL:BSCA:1,2016-11-01T23:30:00Z,30.3288,-87.8293,2.23,6.61,1111122 
DISL,ioos:station:DISL:BSCA:1,2016-11-02T00:00:00Z,30.3288,-87.8293,2.254,6.66,1111122 
DISL,ioos:station:DISL:BSCA:1,2016-11-02T00:30:00Z,30.3288,-87.8293,2.277,6.64,1111122 
DISL,ioos:station:DISL:BSCA:1,2016-11-02T01:00:00Z,30.3288,-87.8293,2.296,6.69,1111122 
DISL,ioos:station:DISL:BSCA:1,2016-11-02T01:30:00Z,30.3288,-87.8293,2.331,6.7,1111122 
DISL,ioos:station:DISL:BSCA:1,2016-11-02T02:00:00Z,30.3288,-87.8293,2.358,6.64,1111122 
DISL,ioos:station:DISL:BSCA:1,2016-11-02T02:30:00Z,30.3288,-87.8293,2.386,6.52,1111122 
DISL,ioos:station:DISL:BSCA:1,2016-11-02T03:00:00Z,30.3288,-87.8293,2.408,6.47,1111122 
DISL,ioos:station:DISL:BSCA:1,2016-11-02T03:30:00Z,30.3288,-87.8293,2.421,6.7,1111122 
DISL,ioos:station:DISL:BSCA:1,2016-11-02T04:00:00Z,30.3288,-87.8293,2.43,6.51,1111122 
DISL,ioos:station:DISL:BSCA:1,2016-11-02T04:30:00Z,30.3288,-87.8293,2.442,6.71,1111122 
DISL,ioos:station:DISL:BSCA:1,2016-11-02T05:00:00Z,30.3288,-87.8293,2.447,6.23,1111122 
DISL,ioos:station:DISL:BSCA:1,2016-11-02T05:30:00Z,30.3288,-87.8293,2.449,5.85,1111122 
DISL,ioos:station:DISL:BSCA:1,2016-11-02T06:00:00Z,30.3288,-87.8293,2.429,5.64,1111122 
DISL,ioos:station:DISL:BSCA:1,2016-11-02T06:30:00Z,30.3288,-87.8293,2.421,5.43,1111122 
DISL,ioos:station:DISL:BSCA:1,2016-11-02T07:00:00Z,30.3288,-87.8293,2.405,5.41,1111122 
DISL,ioos:station:DISL:BSCA:1,2016-11-02T07:30:00Z,30.3288,-87.8293,2.385,5.84,1111122 
DISL,ioos:station:DISL:BSCA:1,2016-11-02T08:00:00Z,30.3288,-87.8293,2.362,5.63,1111122 
DISL,ioos:station:DISL:BSCA:1,2016-11-02T08:30:00Z,30.3288,-87.8293,2.326,5.96,1111122 
DISL,ioos:station:DISL:BSCA:1,2016-11-02T09:00:00Z,30.3288,-87.8293,2.293,5.99,1111122 
DISL,ioos:station:DISL:BSCA:1,2016-11-02T09:30:00Z,30.3288,-87.8293,2.255,5.86,1111122 
DISL,ioos:station:DISL:BSCA:1,2016-11-02T10:00:00Z,30.3288,-87.8293,2.216,5.88,1111122 
DISL,ioos:station:DISL:BSCA:1,2016-11-02T10:30:00Z,30.3288,-87.8293,2.173,5.68,1111122 
DISL,ioos:station:DISL:BSCA:1,2016-11-02T11:00:00Z,30.3288,-87.8293,2.131,5.51,1111122 
DISL,ioos:station:DISL:BSCA:1,2016-11-02T11:30:00Z,30.3288,-87.8293,2.1,5.57,1111122 
DISL,ioos:station:DISL:BSCA:1,2016-11-02T12:00:00Z,30.3288,-87.8293,2.067,5.57,1111122 
DISL,ioos:station:DISL:BSCA:1,2016-11-02T12:30:00Z,30.3288,-87.8293,2.042,5.56,1111122 
DISL,ioos:station:DISL:BSCA:1,2016-11-02T13:00:00Z,30.3288,-87.8293,2.018,5.55,1111122 
DISL,ioos:station:DISL:BSCA:1,2016-11-02T13:30:00Z,30.3288,-87.8293,2.011,5.65,1111122 
DISL,ioos:station:DISL:BSCA:1,2016-11-02T14:00:00Z,30.3288,-87.8293,2.0,5.69,1111122 
DISL,ioos:station:DISL:BSCA:1,2016-11-02T14:30:00Z,30.3288,-87.8293,1.978,5.82,1111122 
DISL,ioos:station:DISL:BSCA:1,2016-11-02T15:00:00Z,30.3288,-87.8293,1.969,5.92,1111122 
DISL,ioos:station:DISL:BSCA:1,2016-11-02T15:30:00Z,30.3288,-87.8293,1.96,6.02,1111122 
DISL,ioos:station:DISL:BSCA:1,2016-11-02T16:00:00Z,30.3288,-87.8293,1.949,6.22,1111122 
DISL,ioos:station:DISL:BSCA:1,2016-11-02T16:30:00Z,30.3288,-87.8293,1.95,6.26,1111122 
DISL,ioos:station:DISL:BSCA:1,2016-11-02T17:00:00Z,30.3288,-87.8293,1.95,6.47,1111122 
DISL,ioos:station:DISL:BSCA:1,2016-11-02T17:30:00Z,30.3288,-87.8293,1.963,6.56,1111122 
DISL,ioos:station:DISL:BSCA:1,2016-11-02T18:00:00Z,30.3288,-87.8293,1.969,6.86,1111122 
DISL,ioos:station:DISL:BSCA:1,2016-11-02T18:30:00Z,30.3288,-87.8293,1.99,6.76,1111122 
DISL,ioos:station:DISL:BSCA:1,2016-11-02T19:00:00Z,30.3288,-87.8293,2.011,7.05,1111122 
DISL,ioos:station:DISL:BSCA:1,2016-11-02T19:30:00Z,30.3288,-87.8293,2.039,7.09,1111122 
DISL,ioos:station:DISL:BSCA:1,2016-11-02T20:00:00Z,30.3288,-87.8293,2.074,7.24,1111122 
DISL,ioos:station:DISL:BSCA:1,2016-11-02T20:30:00Z,30.3288,-87.8293,2.092,7.37,1111122 
DISL,ioos:station:DISL:BSCA:1,2016-11-02T21:00:00Z,30.3288,-87.8293,2.109,7.46,1111122 
DISL,ioos:station:DISL:BSCA:1,2016-11-02T21:30:00Z,30.3288,-87.8293,2.118,7.39,1111122 
DISL,ioos:station:DISL:BSCA:1,2016-11-02T22:00:00Z,30.3288,-87.8293,2.142,7.43,1111122 
DISL,ioos:station:DISL:BSCA:1,2016-11-02T22:30:00Z,30.3288,-87.8293,2.16,7.36,1111122 
DISL,ioos:station:DISL:BSCA:1,2016-11-02T23:00:00Z,30.3288,-87.8293,2.183,7.26,1111122 
DISL,ioos:station:DISL:BSCA:1,2016-11-02T23:30:00Z,30.3288,-87.8293,2.2,7.22,1111122 
DISL,ioos:station:DISL:BSCA:1,2016-11-03T00:00:00Z,30.3288,-87.8293,2.224,7.45,1111122 
DISL,ioos:station:DISL:BSCA:1,2016-11-03T00:30:00Z,30.3288,-87.8293,2.241,7.17,1111122 
DISL,ioos:station:DISL:BSCA:1,2016-11-03T01:00:00Z,30.3288,-87.8293,2.263,7.28,1111122 
DISL,ioos:station:DISL:BSCA:1,2016-11-03T01:30:00Z,30.3288,-87.8293,2.287,7.11,1111122 
DISL,ioos:station:DISL:BSCA:1,2016-11-03T02:00:00Z,30.3288,-87.8293,2.315,7.0,1111122 
DISL,ioos:station:DISL:BSCA:1,2016-11-03T02:30:00Z,30.3288,-87.8293,2.339,6.82,1111122 
DISL,ioos:station:DISL:BSCA:1,2016-11-03T03:00:00Z,30.3288,-87.8293,2.37,7.01,1111122 
DISL,ioos:station:DISL:BSCA:1,2016-11-03T03:30:00Z,30.3288,-87.8293,2.382,6.99,1111122 
DISL,ioos:station:DISL:BSCA:1,2016-11-03T04:00:00Z,30.3288,-87.8293,2.401,7.11,1111122 
DISL,ioos:station:DISL:BSCA:1,2016-11-03T04:30:00Z,30.3288,-87.8293,2.413,6.98,1111122 
DISL,ioos:station:DISL:BSCA:1,2016-11-03T05:00:00Z,30.3288,-87.8293,2.411,7.01,1111122 
DISL,ioos:station:DISL:BSCA:1,2016-11-03T05:30:00Z,30.3288,-87.8293,2.42,6.91,1111122 
DISL,ioos:station:DISL:BSCA:1,2016-11-03T06:00:00Z,30.3288,-87.8293,2.415,6.55,1111122 
DISL,ioos:station:DISL:BSCA:1,2016-11-03T06:30:00Z,30.3288,-87.8293,2.402,6.44,1111122 
DISL,ioos:station:DISL:BSCA:1,2016-11-03T07:00:00Z,30.3288,-87.8293,2.371,6.39,1111122 
DISL,ioos:station:DISL:BSCA:1,2016-11-03T07:30:00Z,30.3288,-87.8293,2.352,6.39,1111122 
DISL,ioos:station:DISL:BSCA:1,2016-11-03T08:00:00Z,30.3288,-87.8293,2.328,6.43,1111122 
DISL,ioos:station:DISL:BSCA:1,2016-11-03T08:30:00Z,30.3288,-87.8293,2.308,6.46,1111122 
DISL,ioos:station:DISL:BSCA:1,2016-11-03T09:00:00Z,30.3288,-87.8293,2.271,6.42,1111122 
DISL,ioos:station:DISL:BSCA:1,2016-11-03T09:30:00Z,30.3288,-87.8293,2.244,6.17,1111122 
DISL,ioos:station:DISL:BSCA:1,2016-11-03T10:00:00Z,30.3288,-87.8293,2.21,6.95,1111122 
DISL,ioos:station:DISL:BSCA:1,2016-11-03T10:30:00Z,30.3288,-87.8293,2.175,6.7,1111122 
DISL,ioos:station:DISL:BSCA:1,2016-11-03T11:00:00Z,30.3288,-87.8293,2.136,6.77,1111122 
DISL,ioos:station:DISL:BSCA:1,2016-11-03T11:30:00Z,30.3288,-87.8293,2.098,6.81,1111122 
DISL,ioos:station:DISL:BSCA:1,2016-11-03T12:00:00Z,30.3288,-87.8293,2.07,6.88,1111122 
DISL,ioos:station:DISL:BSCA:1,2016-11-03T12:30:00Z,30.3288,-87.8293,2.042,7.03,1111122 
DISL,ioos:station:DISL:BSCA:1,2016-11-03T13:00:00Z,30.3288,-87.8293,2.019,6.7,1111122 
DISL,ioos:station:DISL:BSCA:1,2016-11-03T13:30:00Z,30.3288,-87.8293,1.997,6.72,1111122 
DISL,ioos:station:DISL:BSCA:1,2016-11-03T14:00:00Z,30.3288,-87.8293,1.973,6.68,1111122 
DISL,ioos:station:DISL:BSCA:1,2016-11-03T14:30:00Z,30.3288,-87.8293,1.943,6.69,1111122 
DISL,ioos:station:DISL:BSCA:1,2016-11-03T15:00:00Z,30.3288,-87.8293,1.93,6.67,1111122 
DISL,ioos:station:DISL:BSCA:1,2016-11-03T15:30:00Z,30.3288,-87.8293,1.925,6.61,1111122 
DISL,ioos:station:DISL:BSCA:1,2016-11-03T16:00:00Z,30.3288,-87.8293,1.925,6.66,1111122 
DISL,ioos:station:DISL:BSCA:1,2016-11-03T16:30:00Z,30.3288,-87.8293,1.918,6.79,1111122 
DISL,ioos:station:DISL:BSCA:1,2016-11-03T17:00:00Z,30.3288,-87.8293,1.919,6.55,1111122 
DISL,ioos:station:DISL:BSCA:1,2016-11-03T17:30:00Z,30.3288,-87.8293,1.937,6.69,1111122 
DISL,ioos:station:DISL:BSCA:1,2016-11-03T18:00:00Z,30.3288,-87.8293,1.949,6.9,1111122 
DISL,ioos:station:DISL:BSCA:1,2016-11-03T18:30:00Z,30.3288,-87.8293,1.973,7.07,1111122 
DISL,ioos:station:DISL:BSCA:1,2016-11-03T19:00:00Z,30.3288,-87.8293,1.987,7.07,1111122 
DISL,ioos:station:DISL:BSCA:1,2016-11-03T19:30:00Z,30.3288,-87.8293,2.007,6.89,1111122 
DISL,ioos:station:DISL:BSCA:1,2016-11-03T20:00:00Z,30.3288,-87.8293,2.032,7.04,1111122 
DISL,ioos:station:DISL:BSCA:1,2016-11-03T20:30:00Z,30.3288,-87.8293,2.052,7.07,1111122 
DISL,ioos:station:DISL:BSCA:1,2016-11-03T21:00:00Z,30.3288,-87.8293,2.079,6.97,1111122 
DISL,ioos:station:DISL:BSCA:1,2016-11-03T21:30:00Z,30.3288,-87.8293,2.103,6.92,1111122 
DISL,ioos:station:DISL:BSCA:1,2016-11-03T22:00:00Z,30.3288,-87.8293,2.123,7.0,1111122 
DISL,ioos:station:DISL:BSCA:1,2016-11-03T22:30:00Z,30.3288,-87.8293,2.146,6.97,1111122 
DISL,ioos:station:DISL:BSCA:1,2016-11-03T23:00:00Z,30.3288,-87.8293,2.174,6.89,1111122 
DISL,ioos:station:DISL:BSCA:1,2016-11-03T23:30:00Z,30.3288,-87.8293,2.2,6.72,1111122 
DISL,ioos:station:DISL:BSCA:1,2016-11-04T00:00:00Z,30.3288,-87.8293,2.229,6.88,1111122 
DISL,ioos:station:DISL:BSCA:1,2016-11-04T00:30:00Z,30.3288,-87.8293,2.26,6.47,1111122 
DISL,ioos:station:DISL:BSCA:1,2016-11-04T01:00:00Z,30.3288,-87.8293,2.283,6.38,1111122 
DISL,ioos:station:DISL:BSCA:1,2016-11-04T01:30:00Z,30.3288,-87.8293,2.313,6.14,1111122 
DISL,ioos:station:DISL:BSCA:1,2016-11-04T02:00:00Z,30.3288,-87.8293,2.338,6.71,1111122 
DISL,ioos:station:DISL:BSCA:1,2016-11-04T02:30:00Z,30.3288,-87.8293,2.366,7.09,1111122 
DISL,ioos:station:DISL:BSCA:1,2016-11-04T03:00:00Z,30.3288,-87.8293,2.382,6.91,1111122 
DISL,ioos:station:DISL:BSCA:1,2016-11-04T03:30:00Z,30.3288,-87.8293,2.394,6.87,1111122 
DISL,ioos:station:DISL:BSCA:1,2016-11-04T04:00:00Z,30.3288,-87.8293,2.41,6.84,1111122 
DISL,ioos:station:DISL:BSCA:1,2016-11-04T04:30:00Z,30.3288,-87.8293,2.426,6.74,1111122 
DISL,ioos:station:DISL:BSCA:1,2016-11-04T05:00:00Z,30.3288,-87.8293,2.43,6.82,1111122 
DISL,ioos:station:DISL:BSCA:1,2016-11-04T05:30:00Z,30.3288,-87.8293,2.441,6.71,1111122 
DISL,ioos:station:DISL:BSCA:1,2016-11-04T06:00:00Z,30.3288,-87.8293,2.432,6.77,1111122 
DISL,ioos:station:DISL:BSCA:1,2016-11-04T06:30:00Z,30.3288,-87.8293,2.431,6.53,1111122 
DISL,ioos:station:DISL:BSCA:1,2016-11-04T07:00:00Z,30.3288,-87.8293,2.417,6.75,1111122 
DISL,ioos:station:DISL:BSCA:1,2016-11-04T07:30:00Z,30.3288,-87.8293,2.384,6.83,1111122 
DISL,ioos:station:DISL:BSCA:1,2016-11-04T08:00:00Z,30.3288,-87.8293,2.377,6.95,1111122 
DISL,ioos:station:DISL:BSCA:1,2016-11-04T08:30:00Z,30.3288,-87.8293,2.339,6.92,1111122 
DISL,ioos:station:DISL:BSCA:1,2016-11-04T09:00:00Z,30.3288,-87.8293,2.328,6.95,1111122 
DISL,ioos:station:DISL:BSCA:1,2016-11-04T09:30:00Z,30.3288,-87.8293,2.291,6.95,1111122 
DISL,ioos:station:DISL:BSCA:1,2016-11-04T10:00:00Z,30.3288,-87.8293,2.25,6.97,1111122 
DISL,ioos:station:DISL:BSCA:1,2016-11-04T10:30:00Z,30.3288,-87.8293,2.208,6.92,1111122 
DISL,ioos:station:DISL:BSCA:1,2016-11-04T11:00:00Z,30.3288,-87.8293,2.172,6.99,1111122 
DISL,ioos:station:DISL:BSCA:1,2016-11-04T11:30:00Z,30.3288,-87.8293,2.141,6.99,1111122 
DISL,ioos:station:DISL:BSCA:1,2016-11-04T12:00:00Z,30.3288,-87.8293,2.101,6.92,1111122 
DISL,ioos:station:DISL:BSCA:1,2016-11-04T12:30:00Z,30.3288,-87.8293,2.061,6.93,1111122 
DISL,ioos:station:DISL:BSCA:1,2016-11-04T13:00:00Z,30.3288,-87.8293,2.028,6.9,1111122 
DISL,ioos:station:DISL:BSCA:1,2016-11-04T13:30:00Z,30.3288,-87.8293,2.003,6.74,1111122 
DISL,ioos:station:DISL:BSCA:1,2016-11-04T14:00:00Z,30.3288,-87.8293,1.986,6.93,1111122 
DISL,ioos:station:DISL:BSCA:1,2016-11-04T14:30:00Z,30.3288,-87.8293,1.959,6.92,1111122 
DISL,ioos:station:DISL:BSCA:1,2016-11-04T15:00:00Z,30.3288,-87.8293,1.933,7.01,1111122 
DISL,ioos:station:DISL:BSCA:1,2016-11-04T15:30:00Z,30.3288,-87.8293,1.901,6.97,1111122 
DISL,ioos:station:DISL:BSCA:1,2016-11-04T16:00:00Z,30.3288,-87.8293,1.875,6.98,1111122 
DISL,ioos:station:DISL:BSCA:1,2016-11-04T16:30:00Z,30.3288,-87.8293,1.867,6.88,1111122 
DISL,ioos:station:DISL:BSCA:1,2016-11-04T17:00:00Z,30.3288,-87.8293,1.858,6.99,1111122 
DISL,ioos:station:DISL:BSCA:1,2016-11-04T17:30:00Z,30.3288,-87.8293,1.866,7.03,1111122 
DISL,ioos:station:DISL:BSCA:1,2016-11-04T18:00:00Z,30.3288,-87.8293,1.862,7.05,1111122 
DISL,ioos:station:DISL:BSCA:1,2016-11-04T18:30:00Z,30.3288,-87.8293,1.887,7.29,1111122 
DISL,ioos:station:DISL:BSCA:1,2016-11-04T19:00:00Z,30.3288,-87.8293,1.909,7.47,1111122 
DISL,ioos:station:DISL:BSCA:1,2016-11-04T19:30:00Z,30.3288,-87.8293,1.934,7.51,1111122 
DISL,ioos:station:DISL:BSCA:1,2016-11-04T20:00:00Z,30.3288,-87.8293,1.993,7.18,1111122 
DISL,ioos:station:DISL:BSCA:1,2016-11-04T20:30:00Z,30.3288,-87.8293,2.001,7.69,1111122 
DISL,ioos:station:DISL:BSCA:1,2016-11-04T21:00:00Z,30.3288,-87.8293,2.023,7.69,1111122 
DISL,ioos:station:DISL:BSCA:1,2016-11-04T21:30:00Z,30.3288,-87.8293,2.031,7.67,1111122 
DISL,ioos:station:DISL:BSCA:1,2016-11-04T22:00:00Z,30.3288,-87.8293,2.055,7.79,1111122 
DISL,ioos:station:DISL:BSCA:1,2016-11-04T22:30:00Z,30.3288,-87.8293,2.104,7.75,1111122 
DISL,ioos:station:DISL:BSCA:1,2016-11-04T23:00:00Z,30.3288,-87.8293,2.097,7.71,1111122 
DISL,ioos:station:DISL:BSCA:1,2016-11-04T23:30:00Z,30.3288,-87.8293,2.137,7.58,1111122 
DISL,ioos:station:DISL:BSCA:1,2016-11-05T00:00:00Z,30.3288,-87.8293,2.171,7.31,1111122 
DISL,ioos:station:DISL:BSCA:1,2016-11-05T00:30:00Z,30.3288,-87.8293,2.181,7.33,1111122 
DISL,ioos:station:DISL:BSCA:1,2016-11-05T01:00:00Z,30.3288,-87.8293,2.188,7.21,1111122 
DISL,ioos:station:DISL:BSCA:1,2016-11-05T01:30:00Z,30.3288,-87.8293,2.191,7.22,1111122 
DISL,ioos:station:DISL:BSCA:1,2016-11-05T02:00:00Z,30.3288,-87.8293,2.194,7.15,1111122 
DISL,ioos:station:DISL:BSCA:1,2016-11-05T02:30:00Z,30.3288,-87.8293,2.211,7.08,1111122 
DISL,ioos:station:DISL:BSCA:1,2016-11-05T03:00:00Z,30.3288,-87.8293,2.234,7.23,1111122 
DISL,ioos:station:DISL:BSCA:1,2016-11-05T03:30:00Z,30.3288,-87.8293,2.246,7.2,1111122 
DISL,ioos:station:DISL:BSCA:1,2016-11-05T04:00:00Z,30.3288,-87.8293,2.254,7.25,1111122 
DISL,ioos:station:DISL:BSCA:1,2016-11-05T04:30:00Z,30.3288,-87.8293,2.249,7.2,1111122 
DISL,ioos:station:DISL:BSCA:1,2016-11-05T05:00:00Z,30.3288,-87.8293,2.249,7.12,1111122 
DISL,ioos:station:DISL:BSCA:1,2016-11-05T05:30:00Z,30.3288,-87.8293,2.236,7.16,1111122 
DISL,ioos:station:DISL:BSCA:1,2016-11-05T06:00:00Z,30.3288,-87.8293,2.227,7.03,1111122 
DISL,ioos:station:DISL:BSCA:1,2016-11-05T06:30:00Z,30.3288,-87.8293,2.211,7.0,1111122 
DISL,ioos:station:DISL:BSCA:1,2016-11-05T07:00:00Z,30.3288,-87.8293,2.207,6.99,1111122 
DISL,ioos:station:DISL:BSCA:1,2016-11-05T07:30:00Z,30.3288,-87.8293,2.2,6.85,1111122 
DISL,ioos:station:DISL:BSCA:1,2016-11-05T08:00:00Z,30.3288,-87.8293,2.208,6.77,1111122 
DISL,ioos:station:DISL:BSCA:1,2016-11-05T08:30:00Z,30.3288,-87.8293,2.2,6.94,1111122 
DISL,ioos:station:DISL:BSCA:1,2016-11-05T09:00:00Z,30.3288,-87.8293,2.183,6.8,1111122 
DISL,ioos:station:DISL:BSCA:1,2016-11-05T09:30:00Z,30.3288,-87.8293,2.174,6.83,1111122 
DISL,ioos:station:DISL:BSCA:1,2016-11-05T10:00:00Z,30.3288,-87.8293,2.152,6.86,1111122 
DISL,ioos:station:DISL:BSCA:1,2016-11-05T10:30:00Z,30.3288,-87.8293,2.127,6.48,1111122 
DISL,ioos:station:DISL:BSCA:1,2016-11-05T11:00:00Z,30.3288,-87.8293,2.104,6.55,1111122 
DISL,ioos:station:DISL:BSCA:1,2016-11-05T11:30:00Z,30.3288,-87.8293,2.093,6.54,1111122 
DISL,ioos:station:DISL:BSCA:1,2016-11-05T12:00:00Z,30.3288,-87.8293,2.069,6.66,1111122 
DISL,ioos:station:DISL:BSCA:1,2016-11-05T12:30:00Z,30.3288,-87.8293,2.038,6.71,1111122 
DISL,ioos:station:DISL:BSCA:1,2016-11-05T13:00:00Z,30.3288,-87.8293,2.006,6.64,1111122 
DISL,ioos:station:DISL:BSCA:1,2016-11-05T13:30:00Z,30.3288,-87.8293,1.978,6.6,1111122 
DISL,ioos:station:DISL:BSCA:1,2016-11-05T14:00:00Z,30.3288,-87.8293,1.963,6.88,1111122 
DISL,ioos:station:DISL:BSCA:1,2016-11-05T14:30:00Z,30.3288,-87.8293,1.95,6.69,1111122 
DISL,ioos:station:DISL:BSCA:1,2016-11-05T15:00:00Z,30.3288,-87.8293,1.932,6.62,1111122 
DISL,ioos:station:DISL:BSCA:1,2016-11-05T15:30:00Z,30.3288,-87.8293,1.919,6.94,1111122 
DISL,ioos:station:DISL:BSCA:1,2016-11-05T16:00:00Z,30.3288,-87.8293,1.889,7.13,1111122 
DISL,ioos:station:DISL:BSCA:1,2016-11-05T16:30:00Z,30.3288,-87.8293,1.877,7.22,1111122 
DISL,ioos:station:DISL:BSCA:1,2016-11-05T17:00:00Z,30.3288,-87.8293,1.859,7.4,1111122 
DISL,ioos:station:DISL:BSCA:1,2016-11-05T17:30:00Z,30.3288,-87.8293,1.846,7.45,1111122 
DISL,ioos:station:DISL:BSCA:1,2016-11-05T18:00:00Z,30.3288,-87.8293,1.833,7.58,1111122 
DISL,ioos:station:DISL:BSCA:1,2016-11-05T18:30:00Z,30.3288,-87.8293,1.848,7.62,1111122 
DISL,ioos:station:DISL:BSCA:1,2016-11-05T19:00:00Z,30.3288,-87.8293,1.871,7.61,1111122 
DISL,ioos:station:DISL:BSCA:1,2016-11-05T19:30:00Z,30.3288,-87.8293,1.893,7.71,1111122 
DISL,ioos:station:DISL:BSCA:1,2016-11-05T20:00:00Z,30.3288,-87.8293,1.921,7.71,1111122 
DISL,ioos:station:DISL:BSCA:1,2016-11-05T20:30:00Z,30.3288,-87.8293,1.941,7.78,1111122 
DISL,ioos:station:DISL:BSCA:1,2016-11-05T21:00:00Z,30.3288,-87.8293,1.967,7.77,1111122 
DISL,ioos:station:DISL:BSCA:1,2016-11-05T21:30:00Z,30.3288,-87.8293,1.985,7.7,1111122 
DISL,ioos:station:DISL:BSCA:1,2016-11-05T22:00:00Z,30.3288,-87.8293,2.005,7.61,1111122 
DISL,ioos:station:DISL:BSCA:1,2016-11-05T22:30:00Z,30.3288,-87.8293,2.019,7.68,1111122 
DISL,ioos:station:DISL:BSCA:1,2016-11-05T23:00:00Z,30.3288,-87.8293,2.043,7.58,1111122 
DISL,ioos:station:DISL:BSCA:1,2016-11-05T23:30:00Z,30.3288,-87.8293,2.071,7.48,1111122 
DISL,ioos:station:DISL:BSCA:1,2016-11-06T00:00:00Z,30.3288,-87.8293,2.098,7.37,1111122 
DISL,ioos:station:DISL:BSCA:1,2016-11-06T00:30:00Z,30.3288,-87.8293,2.121,7.31,1111122 
DISL,ioos:station:DISL:BSCA:1,2016-11-06T01:00:00Z,30.3288,-87.8293,2.141,7.19,1111122 
DISL,ioos:station:DISL:BSCA:1,2016-11-06T01:30:00Z,30.3288,-87.8293,2.171,7.08,1111122 
DISL,ioos:station:DISL:BSCA:1,2016-11-06T02:00:00Z,30.3288,-87.8293,2.211,7.2,1111122 
DISL,ioos:station:DISL:BSCA:1,2016-11-06T02:30:00Z,30.3288,-87.8293,2.224,7.02,1111122 
DISL,ioos:station:DISL:BSCA:1,2016-11-06T03:00:00Z,30.3288,-87.8293,2.226,7.12,1111122 
DISL,ioos:station:DISL:BSCA:1,2016-11-06T03:30:00Z,30.3288,-87.8293,2.251,6.98,1111122 
DISL,ioos:station:DISL:BSCA:1,2016-11-06T04:00:00Z,30.3288,-87.8293,2.279,6.89,1111122 
DISL,ioos:station:DISL:BSCA:1,2016-11-06T04:30:00Z,30.3288,-87.8293,2.259,7.03,1111122 
DISL,ioos:station:DISL:BSCA:1,2016-11-06T05:00:00Z,30.3288,-87.8293,2.281,6.82,1111122 
DISL,ioos:station:DISL:BSCA:1,2016-11-06T05:30:00Z,30.3288,-87.8293,2.277,6.78,1111122 
DISL,ioos:station:DISL:BSCA:1,2016-11-06T06:00:00Z,30.3288,-87.8293,2.294,6.78,1111122 
DISL,ioos:station:DISL:BSCA:1,2016-11-06T06:30:00Z,30.3288,-87.8293,2.304,6.58,1111122 
DISL,ioos:station:DISL:BSCA:1,2016-11-06T07:00:00Z,30.3288,-87.8293,2.304,6.77,1111122 
DISL,ioos:station:DISL:BSCA:1,2016-11-06T07:30:00Z,30.3288,-87.8293,2.307,6.55,1111122 
DISL,ioos:station:DISL:BSCA:1,2016-11-06T08:00:00Z,30.3288,-87.8293,2.297,6.56,1111122 
DISL,ioos:station:DISL:BSCA:1,2016-11-06T08:30:00Z,30.3288,-87.8293,2.266,6.54,1111122 
DISL,ioos:station:DISL:BSCA:1,2016-11-06T09:00:00Z,30.3288,-87.8293,2.243,6.5,1111122 
DISL,ioos:station:DISL:BSCA:1,2016-11-06T09:30:00Z,30.3288,-87.8293,2.217,6.87,1111122 
DISL,ioos:station:DISL:BSCA:1,2016-11-06T10:00:00Z,30.3288,-87.8293,2.202,6.77,1111122 
DISL,ioos:station:DISL:BSCA:1,2016-11-06T10:30:00Z,30.3288,-87.8293,2.174,6.74,1111122 
DISL,ioos:station:DISL:BSCA:1,2016-11-06T11:00:00Z,30.3288,-87.8293,2.15,6.79,1111122 
DISL,ioos:station:DISL:BSCA:1,2016-11-06T11:30:00Z,30.3288,-87.8293,2.123,6.8,1111122 
DISL,ioos:station:DISL:BSCA:1,2016-11-06T12:00:00Z,30.3288,-87.8293,2.09,6.81,1111122 
DISL,ioos:station:DISL:BSCA:1,2016-11-06T12:30:00Z,30.3288,-87.8293,2.05,6.71,1111122 
DISL,ioos:station:DISL:BSCA:1,2016-11-06T13:00:00Z,30.3288,-87.8293,2.021,6.8,1111122 
DISL,ioos:station:DISL:BSCA:1,2016-11-06T13:30:00Z,30.3288,-87.8293,1.987,6.87,1111122 
DISL,ioos:station:DISL:BSCA:1,2016-11-06T14:00:00Z,30.3288,-87.8293,1.964,6.85,1111122 
DISL,ioos:station:DISL:BSCA:1,2016-11-06T14:30:00Z,30.3288,-87.8293,1.931,6.91,1111122 
DISL,ioos:station:DISL:BSCA:1,2016-11-06T15:00:00Z,30.3288,-87.8293,1.907,6.92,1111122 
DISL,ioos:station:DISL:BSCA:1,2016-11-06T15:30:00Z,30.3288,-87.8293,1.9,7.08,1111122 